Tracking 23726 objects as of 24-Sep-2021
HD Live streaming from Space Station
objects crossing your sky now

DELTA 1 DEB

Track DELTA 1 DEB now!
10-day predictions


NORAD ID: 13573
Int'l Code: 1978-026FL
Perigee: 888.4 km
Apogee: 993.6 km
Inclination: 99.0 °
Period: 103.7 minutes
Semi major axis: 7311 km
RCS: 0.0137 m2 (small)
Launch date: March 5, 1978
Source: United States (US)
Launch site: AIR FORCE WESTERN TEST RANGE (AFWTR)

Note: This is SATELLITE DEBRIS
aabbcc
Your satellite tracking list
Your tracking list is empty




NASA's NSSDC Master Catalog

Two Line Element Set (TLE):
1 13573U 78026FL  21266.73793351  .00000015  00000-0  47316-4 0  9998
2 13573  98.9975 170.9181 0071944 290.4334 128.9873 13.88509993 43555
Source of the keplerian elements: AFSPC